Ruston, LA

12:00 PM CDT on August 24, 2016 (GMT -0500)
Ruston Regional

Weather History for KRSN - March, 2014

Change the Weather History Date:

Thursday, March 6, 2014

  Actual Average Record
Temperature  
Mean Temperature 42 °F -  
Max Temperature 47 °F 64 °F 84 °F (1955)
Min Temperature 36 °F 39 °F 19 °F (2015)
Degree Days  
Heating Degree Days 24    
Moisture  
Dew Point 38 °F    
Average Humidity 95    
Maximum Humidity 100    
Minimum Humidity 74    
Precipitation  
Precipitation 0.15 in - - ()
Sea Level Pressure  
Sea Level Pressure 30.14 in    
Wind  
Wind Speed 6 mph (North)    
Max Wind Speed 10 mph    
Max Gust Speed -    
Visibility 5 miles    
Events Fog , Rain    
Averages and records for this station are not official NWS values.
T = Trace of Precipitation, MM = Missing Value Source: NWS Daily Summary

Daily Weather History Graph

Daily Weather History Graph

Search for Another Location

Airport or City:

Trip Planner

Search our weather history database for the weather conditions in past years. The results will help you decide how hot, cold, wet, or windy it might be!

Date:

Astronomy

Mar. 06, 2014 Rise Set
Actual Time 6:31 AM CST 6:11 PM CST
Civil Twilight 6:07 AM CST 6:36 PM CST
Nautical Twilight 5:38 AM CST 7:04 PM CST
Astronomical Twilight 5:10 AM CST 7:33 PM CST
Moon 9:59 AM CST (3/6) 11:58 PM CST (3/6)
Length of Visible Light 12h 28m
Length of Day
11h 39m
Waxing Crescent, 32% of the Moon is Illuminated
Mar 6
Waxing Crescent
Mar 8
First Quarter
Mar 16
Full
Mar 23
Last Quarter
Mar 30
New

Hourly Weather History & Observations

Time (CST) Temp. Windchill Dew Point Humidity Pressure Visibility Wind Dir Wind Speed Gust Speed Precip Events Conditions
12:15 AM 39.4 °F 36.1 °F 39.2 °F 99% 30.13 in 2.5 mi North 4.6 mph - 0.06 in Rain Heavy Rain
12:35 AM 39.2 °F 35.9 °F 39.2 °F 100% 30.14 in 3.0 mi North 4.6 mph - 0.11 in Rain Rain
12:55 AM 39.2 °F 35.9 °F 39.0 °F 99% 30.14 in 4.0 mi North 4.6 mph - 0.13 in Rain Rain
1:15 AM 38.7 °F 34.3 °F 38.5 °F 99% 30.14 in 7.0 mi North 5.8 mph - N/A Rain Light Rain
1:35 AM 38.5 °F 33.4 °F 38.3 °F 99% 30.14 in 7.0 mi North 6.9 mph - 0.01 in Rain Light Rain
1:55 AM 38.3 °F 32.5 °F 38.3 °F 100% 30.13 in 7.0 mi North 8.1 mph - 0.02 in Rain Rain
2:15 AM 38.3 °F 31.9 °F 37.9 °F 99% 30.12 in 7.0 mi North 9.2 mph - N/A   Drizzle
2:35 AM 38.3 °F 32.5 °F 37.9 °F 99% 30.12 in 7.0 mi NNW 8.1 mph - N/A   Overcast
2:55 AM 37.9 °F 32.7 °F 37.8 °F 99% 30.12 in 7.0 mi North 6.9 mph - N/A   Overcast
3:15 AM 37.6 °F 31.0 °F 37.4 °F 99% 30.12 in 5.0 mi NNW 9.2 mph - N/A   Overcast
3:35 AM 37.8 °F 31.8 °F 37.6 °F 99% 30.12 in 4.0 mi North 8.1 mph - N/A   Overcast
3:55 AM 37.4 °F 30.8 °F 37.4 °F 100% 30.12 in 3.0 mi North 9.2 mph - N/A   Overcast
4:15 AM 37.4 °F 31.4 °F 37.4 °F 100% 30.12 in 2.5 mi North 8.1 mph - N/A   Overcast
4:35 AM 37.0 °F 31.0 °F 36.9 °F 99% 30.12 in 2.5 mi NNW 8.1 mph - N/A   Overcast
4:55 AM 36.9 °F 32.2 °F 36.7 °F 99% 30.13 in 2.5 mi North 5.8 mph - N/A   Overcast
5:15 AM 36.9 °F 32.2 °F 36.7 °F 99% 30.13 in 2.5 mi North 5.8 mph - N/A   Overcast
5:35 AM 36.7 °F 30.5 °F 36.5 °F 99% 30.13 in 2.0 mi North 8.1 mph - N/A   Overcast
5:55 AM 36.5 °F 30.3 °F 36.5 °F 100% 30.13 in 2.5 mi North 8.1 mph - N/A   Overcast
6:15 AM 36.5 °F 33.9 °F 36.5 °F 100% 30.13 in 3.0 mi North 3.5 mph - N/A   Overcast
6:35 AM 36.5 °F 29.7 °F 36.5 °F 100% 30.14 in 4.0 mi North 9.2 mph - N/A   Overcast
6:55 AM 36.5 °F 29.7 °F 36.5 °F 100% 30.14 in 3.0 mi North 9.2 mph - N/A   Overcast
7:15 AM 36.5 °F 30.3 °F 36.5 °F 100% 30.14 in 3.0 mi North 8.1 mph - N/A   Overcast
7:35 AM 36.5 °F 31.8 °F 36.5 °F 100% 30.14 in 4.0 mi North 5.8 mph - N/A   Overcast
7:55 AM 36.5 °F 29.7 °F 36.5 °F 100% 30.15 in 4.0 mi North 9.2 mph - N/A   Overcast
8:20 AM 36.7 °F 32.0 °F 36.5 °F 99% 30.15 in 3.0 mi North 5.8 mph - N/A   Overcast
8:35 AM 36.7 °F 32.0 °F 36.5 °F 99% 30.16 in 3.0 mi North 5.8 mph - N/A   Overcast
8:55 AM 37.0 °F 31.6 °F 36.9 °F 99% 30.16 in 4.0 mi North 6.9 mph - N/A   Overcast
9:15 AM 37.4 °F 32.8 °F 37.2 °F 99% 30.17 in 7.0 mi North 5.8 mph - N/A   Overcast
9:35 AM 37.6 °F 32.3 °F 37.4 °F 99% 30.17 in 10.0 mi North 6.9 mph - N/A   Overcast
9:55 AM 37.9 °F 32.1 °F 37.6 °F 99% 30.18 in 10.0 mi North 8.1 mph - N/A   Overcast
10:15 AM 37.9 °F 32.7 °F 37.4 °F 98% 30.18 in 10.0 mi North 6.9 mph - N/A   Overcast
10:35 AM 38.3 °F 33.2 °F 37.6 °F 97% 30.18 in 10.0 mi NNW 6.9 mph - N/A   Overcast
10:55 AM 37.9 °F 31.5 °F 37.2 °F 97% 30.18 in 7.0 mi NNW 9.2 mph - N/A   Overcast
11:15 AM 38.1 °F 31.7 °F 37.4 °F 97% 30.18 in 5.0 mi NNW 9.2 mph - N/A   Overcast
11:35 AM 37.9 °F 32.7 °F 37.4 °F 98% 30.18 in 3.0 mi NNW 6.9 mph - N/A   Overcast
11:55 AM 38.3 °F 32.5 °F 37.8 °F 98% 30.18 in 2.5 mi NNW 8.1 mph - N/A   Overcast
12:15 PM 38.5 °F 32.1 °F 37.9 °F 98% 30.18 in 2.5 mi North 9.2 mph - N/A   Overcast
12:35 PM 38.5 °F 33.4 °F 37.8 °F 97% 30.17 in 3.0 mi NNW 6.9 mph - N/A   Overcast
12:55 PM 38.8 °F 33.8 °F 37.9 °F 97% 30.16 in 4.0 mi North 6.9 mph - N/A   Overcast
1:15 PM 39.6 °F 33.0 °F 38.3 °F 95% 30.15 in 5.0 mi North 10.4 mph - N/A   Overcast
1:35 PM 39.7 °F 33.7 °F 38.1 °F 94% 30.14 in 7.0 mi North 9.2 mph - N/A   Overcast
1:55 PM 40.3 °F 34.9 °F 38.5 °F 93% 30.14 in 5.0 mi NNW 8.1 mph - N/A   Overcast
2:15 PM 40.6 °F 36.7 °F 38.3 °F 91% 30.14 in 7.0 mi NNW 5.8 mph - N/A   Overcast
2:35 PM 41.9 °F 36.3 °F 38.8 °F 89% 30.13 in 10.0 mi NNW 9.2 mph - N/A   Overcast
2:55 PM 42.1 °F 37.1 °F 38.7 °F 88% 30.13 in 10.0 mi NNW 8.1 mph - N/A   Overcast
3:15 PM 42.8 °F 39.3 °F 38.8 °F 86% 30.12 in 10.0 mi North 5.8 mph - N/A   Overcast
3:35 PM 43.7 °F 39.1 °F 38.7 °F 82% 30.13 in 10.0 mi North 8.1 mph - N/A   Overcast
3:55 PM 44.6 °F 40.2 °F 39.0 °F 81% 30.12 in 10.0 mi North 8.1 mph - N/A   Overcast
4:15 PM 45.9 °F 42.3 °F 39.2 °F 78% 30.12 in 10.0 mi NNW 6.9 mph - N/A   Overcast
4:35 PM 46.4 °F 45.2 °F 39.0 °F 75% 30.12 in 10.0 mi NNE 3.5 mph - N/A   Overcast
4:55 PM 46.2 °F 43.3 °F 39.2 °F 76% 30.12 in 10.0 mi NNE 5.8 mph - N/A   Overcast
5:15 PM 47.3 °F - 39.4 °F 74% 30.11 in 10.0 mi North 5.8 mph - N/A   Overcast
5:35 PM 46.4 °F 44.3 °F 39.7 °F 78% 30.12 in 10.0 mi NE 4.6 mph - N/A   Overcast
5:55 PM 44.8 °F - 39.6 °F 82% 30.12 in 10.0 mi Calm Calm - N/A   Scattered Clouds
6:15 PM 42.6 °F 39.9 °F 39.2 °F 88% 30.12 in 10.0 mi NE 4.6 mph - N/A   Clear
6:35 PM 41.4 °F - 38.8 °F 91% 30.12 in 10.0 mi Calm Calm - N/A   Clear
6:55 PM 40.3 °F - 38.5 °F 93% 30.12 in 10.0 mi Calm Calm - N/A   Clear
7:15 PM 39.4 °F 37.2 °F 38.3 °F 96% 30.12 in 7.0 mi ENE 3.5 mph - N/A   Clear
7:35 PM 39.2 °F - 37.9 °F 95% 30.12 in 7.0 mi Calm Calm - N/A   Clear
7:55 PM 38.5 °F 35.0 °F 37.4 °F 96% 30.12 in 5.0 mi NE 4.6 mph - N/A   Clear
8:15 PM 38.5 °F 35.0 °F 37.8 °F 97% 30.12 in 5.0 mi NE 4.6 mph - N/A   Clear
8:35 PM 37.9 °F 34.4 °F 37.4 °F 98% 30.12 in 5.0 mi NNE 4.6 mph - N/A   Scattered Clouds
8:55 PM 37.8 °F 34.2 °F 37.4 °F 99% 30.13 in 1.5 mi NNE 4.6 mph - N/A   Overcast
9:15 PM 37.6 °F 33.1 °F 37.4 °F 99% 30.13 in 0.5 mi NE 5.8 mph - N/A Fog Fog
9:35 PM 37.6 °F 35.1 °F 37.4 °F 99% 30.13 in 0.8 mi NE 3.5 mph - N/A   Overcast
9:55 PM 37.6 °F 35.1 °F 37.6 °F 100% 30.12 in 0.5 mi ENE 3.5 mph - N/A Fog Fog
10:15 PM 37.6 °F - 37.6 °F 100% 30.13 in 0.5 mi Calm Calm - N/A Fog Fog
10:35 PM 37.6 °F - 37.6 °F 100% 30.12 in 0.2 mi Calm Calm - N/A Fog Fog
10:55 PM 37.6 °F - 37.6 °F 100% 30.12 in 0.2 mi Calm Calm - N/A Fog Fog
11:15 PM 37.6 °F - 37.6 °F 100% 30.12 in 0.2 mi Calm Calm - N/A Fog Fog
11:35 PM 37.4 °F - 37.4 °F 100% 30.13 in 0.2 mi Calm Calm - N/A Fog Fog
11:55 PM 37.4 °F - 37.4 °F 100% 30.13 in 0.2 mi Calm Calm - N/A Fog Fog